Tracking 31027 objects as of 19-Jul-2025
HD Live streaming from Space Station
objects crossing your sky now

STARLINK-5668

Track STARLINK-5668 now!
10-day predictions
STARLINK-5668 is classified as:


NORAD ID: 55350
Int'l Code: 2023-013V
Perigee: 565.6 km
Apogee: 566.9 km
Inclination: 43.0 °
Period: 95.8 minutes
Semi major axis: 6937 km
RCS: Unknown
Launch date: January 26, 2023
Source: United States (US)
Launch site: AIR FORCE EASTERN TEST RANGE (AFETR)
Your satellite tracking list
STARLINK-30236
Track 1 satellite(s)




NASA's NSSDC Master Catalog

Two Line Element Set (TLE):
1 55350U 23013V   25199.50998678  .00000274  00000-0  35348-4 0  9995
2 55350  43.0034 132.7167 0000975 260.9132  99.1600 15.02530338136482
Source of the keplerian elements: AFSPC